Погода в Анапе

Погода в Анапе : погода сейчас, прогноз погоды и архив. Всё, что Вы хотите узнать о погоде в Анапе!

Поиск расширенной информации на нашем сайте:

Другие новости

Новости СМИ2

Главная страница сайта

Новости сайта

02.10.2013

Напоминаем, что на нашем новом сайте вы можете получить высокодетализированные прогнозы погоды по пунктам России, СНГ и мира (включающие важные для авиации метеовеличины, такие как направление и скорость ветра, видимость, явления погоды, количество и форма облачности, нижняя и верхняя граница облачности), а также ознакомиться с разнообразными материалами по авиационной метеорологии и подборкой полезных ссылок на эту тему.

Сайт Метеоцентр.Азия посвящён разработке технологий оптимизации авиаметеорологического обслуживания, включая проектирование и перспективное создание нескольких автоматизированных авиаметеорологических систем:
- система выпуска высокодетальных прогностических карт явлений погоды для нижнего воздушного пространства по России и ближнему зарубежью;
- система верификации прогнозов TAF (выпускаемых синоптиками официальных АМСГ РФ и ближнего зарубежья) и AUTOTAF (выпускаемых сайтом Метеоцентр.Азия) - выявление ошибок, онлайн-сопоставление с фактической погодой METAR, автоматическое внесение коррективов в прогнозы при резком отклонении фактической погоды от прогноза, подсчёт оправдываемости прогнозов по элементам и в целом;
- система обработки, анализа и отображения авиаметеорологической информации для применения провайдерами метеорологической информации.

Рекомендуем: Прокат и аренда авто кемерово.

Погода в Анапе - сегодня

Время (UTC), дата Ветер
(°,м/с) 
Видим.   Явления Облачность Т
(°С)
Тd
(°С)
f(%) Тe
(°С)
Pmin
(гПа)
dP
(гПа)
Po
(мм)
O2
(г/м3)
Тmin Tmax R s Состояние
почвы
09 18.01.17 060 (СВ) 8-14{14}  10 км    9/3 300 м средняя, верхняя 
[Sc|Ac trans|Ci fib]
+3.5 +0.7 82 1023.3  0.2  764  304           
12 18.01.17 050 (СВ) 6-11{14}  10 км    8/3 600 м средняя, верхняя 
[Sc|Ac trans|Ci sp]
+4.7 +0.9 76 +2  1023.4  0.2  764  303           
15 18.01.17 050 (СВ) 7-13{15}  10 км    9/9 600 м кучево-дожд. 
[Cb cap]
+3.8 +0.4 78 +1  1024.6  1.2  765  304    +5       
18 18.01.17 040 (СВ) 8-13{17}  10 км    8/8 600 м 
[Sc]
+2.5 -0.4 81 -1  1025.3  0.6  766  306           
21 18.01.17 040 (СВ) 9-14{15}  10 км    9/9 600 м 
[Sc]
+1.1 -1.6 82 -3  1026.1  0.8  766  308           
00 19.01.17 040 (СВ) 8-13{17}  10 км    8/8 600 м 
[Sc]
+0.3 -2.6 81 -4  1026.9  0.8  767  309           
03 19.01.17 040 (СВ) 8-14{14}  10 км    6/6 300 м 
[Sc]
-0.6 -3.5 81 -5  1028.1  1.2  768  311  -0.6         
06 19.01.17 040 (СВ) 9-14{15}  10 км    8/6 600 м верхняя 
[Sc|Ci fib]
-1.3 -4.4 79 -6  1029.3  1.1  769  312  -1.3         
09 19.01.17 030 (СВ) 7-12{15}  20000 м    8/8 600 м 
[Sc]
-0.2 -4.5 73 -4  1030.8  1.5  770  311           
12 19.01.17 040 (СВ) 8-13{14}  10 км    10/10 600 м 
[Sc]
-1.4 -4.6 79 -6  1030.4  -0.4  770  312           
15 19.01.17 030 (СВ) 7-12{14}  10 км    10/10 600 м 
[Sc]
-1.9 -4.7 81 -6  1031  0.6  770  313    +0       
18 19.01.17 040 (СВ) 8-14{15}  10 км    9/9 600 м 
[Sc]
-2.6 -5.4 81 -7  1030.9  0.1  770  314           
21 19.01.17 040 (СВ) 7-12{14}  10 км    10/10 600 м 
[Sc]
-3.4 -6 82 -8  1030.9  770  315           
00 20.01.17 030 (СВ) 7-12{14}  10 км    10/10 600 м 
[Sc]
-3.7 -6.1 83 -8  1030.7  -0.2  770  315           
03 20.01.17 030 (СВ) 5-10{14}  10 км    10/10 600 м 
[Sc]
-3.9 -6.2 84 -8  1030.3  -0.4  770  315  -4         
06 20.01.17 030 (СВ) 7-11{12}  10 км    9/9 300 м 
[St]
-4.1 -6.5 83 -9  1031.2  0.9  770  316  -4.2         
09 20.01.17 030 (СВ) 6-10{12}  10 км    9/9 600 м 
[Sc]
-3.9 -6.8 80 -8  1031.3  0.1  770  316           
12 20.01.17 020 (С) 5{10}  10 км    8/8 600 м 
[Sc]
-3.2 -7.5 72 -7  1030.4  -0.9  770  315           
15 20.01.17 360 (С) 10 км    8/8 600 м 
[Sc]
-4.6 -7.5 80 -7  1030.5  0.1  770  316    -2.8       
18 20.01.17 010 (С) 10 км    9/9 600 м 
[Sc]
-4.6 -7.7 79 -7  1030.7  0.2  770  316           
21 20.01.17 060 (СВ) 10 км    4/4 600 м 
[Sc]
-4.8 -7.3 83 -6  1030.2  -0.5  769  316           
00 21.01.17 050 (СВ) 10 км    3/3 600 м 
[Sc]
-4.7 -7.1 83 -7  1029.4  -0.8  769  316           
03 21.01.17 060 (СВ) 10 км    10/10 600 м 
[Sc]
-3.9 -6.9 80 -5  1028.4  -1  768  315  -5.6         
06 21.01.17 060 (СВ) 10 км    9/4 600 м средняя 
[Sc|Ac trans]
-2.6 -5.4 81 -2  1027.9  -0.5  768  313           
09 21.01.17 200 (Ю) 10 км    9/0 средняя, верхняя 
[Ac trans|Ci sp]
+4.3 -1 68 +5  1026.6  -1.2  767  304           
Время (UTC), дата Ветер
(°,м/с) 
Видим.   Явления Облачность Т
(°С)
Тd
(°С)
f(%) Тe
(°С)
Pmin
(гПа)
dP
(гПа)
Po
(мм)
O2
(г/м3)
Тmin Tmax R s Состояние
почвы

Для получения пояснительной информации подведите курсор к названию столбца.

ПОГОДА в Анапе - архив

Всё, что Вы хотите узнать о погоде в Анапе - удобно и подробно!

Выберите нужную дату (начиная с 1 января 2015* года) и нажмите кнопку "Найти".
Будут отображены архивные сводки погоды по пункту Анапа, начиная с указанной даты.


Отображать данные в формате CSV (для использования в таблицах Excel)


Внимание! Наш архив погоды предназначен исключительно для личного некоммерческого использования в познавательных целях. Если Вам необходимы официальные справки о состоянии погоды (для производственных, юридических, коммерческих и т.п. целей), обращайтесь в органы Росгидромета.

*Примечание: данная дата относится к архиву по метеостанциям СССР (Россия, СНГ, Балтия).
Архив по метеостанциям Зарубежной Европы и Азии (кроме Китая) хранится 10 дней, по другим регионам земного шара (Китай, Африка, Америка, Австралия, Океания) - 1 день.

Анапа - район местоположения метеостанции


Название, широта, долгота, высота метеостанции:
Анапа (обсерватория) 44.97°ш. 37.30°д. 23 м над ур. моря [Российская Федерация]

Дополнительная информация

В oтличие oт бoльшинства пoгoдных сайтoв мы публикуем пoдрoбную метеoинфoрмацию в детальнoм прoфессиoнальнoм фoрмате.

Характеристики температуры и влажнoсти вoздуха измеряются на высoте 2 м в тени вдали oт зданий и деревьев.
Скoрoсть ветра измеряется на высoте 10 м (на урoвне рoста челoвека скoрoсть ветра ниже в 1.5-2 раза). Если метеoстанция нахoдится в гoрoде или в лесу, тo скoрoсть ветра занижена на 2-4 м/с пo сравнению с oткрытым местoм. Скoрoсть ветра над акватoриями крупных рек и oзёр, а также на вершинах хoлмoв на 2-5 м/с выше, чем в oбычных услoвиях.
Атмoсфернoе давление в разных тoчках местнoсти мoжет значительнo oтличаться oт давления на метеoстанции, в зависимoсти oт услoвий рельефа (при пoдъёме на 10 м давление пoнижается примернo на 1 мм рт.ст.).